Location: Bégole
(43.1574°N, 0.3291°E)
Time: 09:59:03
(UTC+00:00)

NOAA 16 DEB - Pass Details

Date: 06 March 2024
Orbit: 831 x 876 km, 98.7° (Epoch: 12 April)

Event Time Altitude Azimuth Distance (km) Brightness Sun altitude
Rises 18:13:34 0° 136° (SE) 3,390 ? -4.3°
Reaches altitude 10° 18:16:10 10° 126° (SE) 2,453 ? -4.8°
Maximum altitude 18:20:53 31° 66° (ENE) 1,423 ? -5.6°
Drops below altitude 10° 18:25:35 10° 5° (N) 2,452 ? -6.5°
Sets 18:28:10 0° 356° (N) 3,388 ? -6.9°
